Location: *
(49.8044°N, 4.0558°E)
Time: 17:44:24
(UTC+00:00)

Cosmos 2058 - Pass Details

Date: 09 April 2020
Orbit: 563 x 582 km, 82.5° (Epoch: 28 May)

Event Time Altitude Azimuth Distance (km) Brightness Sun altitude
Rises 20:49:32 0° 345° (NNW) 2,776 7.4 -20.7°
Reaches altitude 10° 20:51:45 10° 340° (NNW) 1,876 6.4 -21.0°
Maximum altitude 20:55:45 50° 265° (W) 735 3.6 -21.5°
Enters shadow 20:57:16 32° 210° (SSW) 984 3.9 -21.6°
